ANZ1985 YSCB-YSSY

Flight info

Callsign ANZ1985
Flight time N/A
Altitude 33000
Route YSCB/35 3519S14912E 3517S14912E VICKI PLUGA MARLN YSSY
Aircraft B77W/H-S/N

Departure

Time N/A
Airport Canberra Airport (YSCB)

Arrival

Time 2026-04-25 07:15
Airport Sydney Kingsford Smith International Airport (YSSY)
Time Latitude Longitude Altitude Speed Heading
2026-04-25 06:38 -35.06426 154.21006 33001 ft 489 kts 352°
2026-04-25 06:38 -35.03097 154.20202 33008 ft 489 kts 346°
2026-04-25 06:39 -34.96621 154.17724 32996 ft 489 kts 334°
2026-04-25 06:39 -34.93736 154.15566 32999 ft 489 kts 323°
2026-04-25 06:39 -34.91258 154.12772 33001 ft 489 kts 311°
2026-04-25 06:40 -34.87585 154.05828 33006 ft 489 kts 298°
2026-04-25 06:40 -34.84501 153.98490 33002 ft 489 kts 296°
2026-04-25 06:41 -34.81459 153.91113 33002 ft 489 kts 296°
2026-04-25 06:41 -34.78412 153.83724 33004 ft 489 kts 296°
2026-04-25 06:42 -34.75370 153.76365 33002 ft 489 kts 296°
2026-04-25 06:42 -34.72318 153.68995 33002 ft 489 kts 297°
2026-04-25 06:43 -34.69262 153.61631 33002 ft 489 kts 297°
2026-04-25 06:43 -34.66200 153.54269 33001 ft 489 kts 297°
2026-04-25 06:44 -34.63137 153.46921 33002 ft 489 kts 297°
2026-04-25 06:44 -34.60073 153.39587 33002 ft 489 kts 297°
2026-04-25 06:45 -34.56999 153.32243 33002 ft 489 kts 297°
2026-04-25 06:45 -34.53920 153.24904 33001 ft 489 kts 297°
2026-04-25 06:46 -34.50840 153.17577 33001 ft 489 kts 297°
2026-04-25 06:46 -34.47755 153.10253 33001 ft 489 kts 297°
2026-04-25 06:47 -34.44669 153.02944 33001 ft 489 kts 297°
2026-04-25 06:47 -34.41571 152.95620 32920 ft 484 kts 297°
2026-04-25 06:47 -34.40061 152.92055 32280 ft 475 kts 297°
2026-04-25 06:48 -34.38558 152.88513 31272 ft 475 kts 297°
2026-04-25 06:48 -34.37048 152.84955 30239 ft 474 kts 297°
2026-04-25 06:48 -34.35550 152.81430 29207 ft 474 kts 297°
2026-04-25 06:48 -34.34040 152.77881 28165 ft 473 kts 297°
2026-04-25 06:49 -34.32544 152.74367 27256 ft 466 kts 297°
2026-04-25 06:49 -34.31082 152.70938 26849 ft 452 kts 297°
2026-04-25 06:49 -34.29875 152.68107 26640 ft 437 kts 297°
2026-04-25 06:49 -34.28499 152.64885 26225 ft 426 kts 297°
2026-04-25 06:50 -34.27157 152.61745 25649 ft 420 kts 297°
2026-04-25 06:50 -34.25829 152.58639 25031 ft 415 kts 297°
2026-04-25 06:50 -34.24507 152.55551 24410 ft 411 kts 297°
2026-04-25 06:50 -34.23203 152.52509 23795 ft 407 kts 297°
2026-04-25 06:51 -34.21911 152.49495 23178 ft 403 kts 297°
2026-04-25 06:51 -34.20631 152.46513 22562 ft 399 kts 297°
2026-04-25 06:51 -34.19365 152.43564 21955 ft 395 kts 297°
2026-04-25 06:51 -34.18112 152.40650 21358 ft 391 kts 297°
2026-04-25 06:52 -34.16866 152.37752 20758 ft 388 kts 297°
2026-04-25 06:52 -34.15634 152.34891 20161 ft 384 kts 297°
2026-04-25 06:52 -34.14409 152.32046 19569 ft 380 kts 297°
2026-04-25 06:52 -34.13197 152.29234 18983 ft 377 kts 297°
2026-04-25 06:53 -34.11991 152.26438 18393 ft 374 kts 297°
2026-04-25 06:53 -34.10804 152.23688 17817 ft 370 kts 297°
2026-04-25 06:53 -34.09623 152.20953 17238 ft 367 kts 297°
2026-04-25 06:53 -34.08450 152.18239 16659 ft 364 kts 297°
2026-04-25 06:54 -34.07289 152.15555 16088 ft 361 kts 297°
2026-04-25 06:54 -34.06133 152.12882 15519 ft 357 kts 297°
2026-04-25 06:54 -34.04995 152.10250 14952 ft 354 kts 297°
2026-04-25 06:54 -34.03870 152.07633 14385 ft 351 kts 296°
2026-04-25 06:55 -34.03067 152.04864 13786 ft 349 kts 283°
2026-04-25 06:55 -34.02707 152.02009 13244 ft 345 kts 277°
2026-04-25 06:55 -34.02464 151.99150 12685 ft 342 kts 275°
2026-04-25 06:55 -34.02236 151.96310 12128 ft 340 kts 275°
2026-04-25 06:56 -34.02001 151.93498 11579 ft 337 kts 276°
2026-04-25 06:56 -34.01756 151.90708 11031 ft 334 kts 276°
2026-04-25 06:56 -34.01503 151.87935 10480 ft 331 kts 276°
2026-04-25 06:56 -34.01246 151.85204 9941 ft 329 kts 276°
2026-04-25 06:57 -34.00984 151.82485 9411 ft 324 kts 276°
2026-04-25 06:57 -34.00731 151.79894 9109 ft 300 kts 277°
2026-04-25 06:57 -34.00492 151.77487 8963 ft 281 kts 277°
2026-04-25 06:57 -34.00263 151.75200 8754 ft 271 kts 277°
2026-04-25 06:58 -34.00038 151.72968 8362 ft 269 kts 277°
2026-04-25 06:58 -33.99813 151.70744 7962 ft 267 kts 277°
2026-04-25 06:58 -33.99587 151.68533 7565 ft 266 kts 277°
2026-04-25 06:58 -33.99362 151.66326 7165 ft 264 kts 277°
2026-04-25 06:59 -33.99141 151.64181 6911 ft 254 kts 277°
2026-04-25 06:59 -33.98925 151.62085 6492 ft 251 kts 277°
2026-04-25 06:59 -33.98712 151.60022 6048 ft 249 kts 277°
2026-04-25 06:59 -33.98499 151.57965 5651 ft 245 kts 277°
2026-04-25 07:00 -33.98290 151.55943 5591 ft 245 kts 277°
2026-04-25 07:00 -33.98078 151.53898 5588 ft 246 kts 277°
2026-04-25 07:00 -33.97866 151.51864 5587 ft 246 kts 277°
2026-04-25 07:00 -33.97653 151.49819 5587 ft 247 kts 277°
2026-04-25 07:01 -33.97439 151.47768 5587 ft 247 kts 277°
2026-04-25 07:01 -33.97226 151.45731 5563 ft 247 kts 277°
2026-04-25 07:01 -33.97011 151.43680 5560 ft 246 kts 277°
2026-04-25 07:01 -33.96796 151.41638 5585 ft 247 kts 277°
2026-04-25 07:02 -33.96647 151.39592 5573 ft 247 kts 270°
2026-04-25 07:02 -33.96996 151.37583 5585 ft 247 kts 251°
2026-04-25 07:02 -33.97754 151.35733 5597 ft 247 kts 243°
2026-04-25 07:02 -33.98542 151.33893 5590 ft 247 kts 243°
2026-04-25 07:03 -33.99302 151.32106 5603 ft 234 kts 243°
2026-04-25 07:03 -34.00030 151.30393 5587 ft 228 kts 243°
2026-04-25 07:03 -34.00744 151.28701 5813 ft 227 kts 243°
2026-04-25 07:03 -34.01460 151.26988 5970 ft 230 kts 243°
2026-04-25 07:04 -34.02177 151.25276 5979 ft 230 kts 243°
2026-04-25 07:04 -34.02896 151.23559 5980 ft 229 kts 243°
2026-04-25 07:04 -34.03571 151.21944 5960 ft 204 kts 243°
2026-04-25 07:04 -34.04198 151.20444 5979 ft 200 kts 243°
2026-04-25 07:05 -34.04818 151.18960 5904 ft 196 kts 243°
2026-04-25 07:05 -34.05430 151.17494 5557 ft 197 kts 243°
2026-04-25 07:05 -34.06044 151.16018 5151 ft 198 kts 243°
2026-04-25 07:05 -34.06671 151.14547 4764 ft 198 kts 242°
2026-04-25 07:06 -34.07299 151.13070 4378 ft 197 kts 243°
2026-04-25 07:06 -34.07940 151.11624 4009 ft 196 kts 237°
2026-04-25 07:06 -34.08935 151.10509 3570 ft 196 kts 213°
2026-04-25 07:06 -34.10212 151.09995 3117 ft 194 kts 188°
2026-04-25 07:07 -34.11523 151.10103 3018 ft 189 kts 171°
2026-04-25 07:07 -34.12839 151.10249 2984 ft 190 kts 173°
2026-04-25 07:07 -34.14149 151.10366 2980 ft 190 kts 173°
2026-04-25 07:07 -34.15472 151.10491 2980 ft 191 kts 173°
2026-04-25 07:08 -34.16782 151.10668 2966 ft 190 kts 166°
2026-04-25 07:08 -34.17937 151.11374 2980 ft 188 kts 142°
2026-04-25 07:08 -34.18727 151.12609 2982 ft 186 kts 117°
2026-04-25 07:08 -34.18983 151.14099 2980 ft 183 kts 92°
2026-04-25 07:09 -34.18816 151.15609 2997 ft 180 kts 81°
2026-04-25 07:09 -34.18674 151.17104 2983 ft 179 kts 83°
2026-04-25 07:09 -34.18540 151.18593 2982 ft 178 kts 83°
2026-04-25 07:09 -34.18404 151.20079 2980 ft 179 kts 83°
2026-04-25 07:10 -34.18171 151.21546 2955 ft 179 kts 72°
2026-04-25 07:10 -34.17453 151.22760 2977 ft 180 kts 47°
2026-04-25 07:10 -34.16327 151.23387 2969 ft 180 kts 15°
2026-04-25 07:10 -34.15128 151.23153 3020 ft 174 kts 347°
2026-04-25 07:11 -34.13995 151.22685 2977 ft 171 kts 346°
2026-04-25 07:11 -34.12850 151.22336 2981 ft 171 kts 349°
2026-04-25 07:11 -34.11814 151.22062 2983 ft 170 kts 351°
2026-04-25 07:11 -34.10683 151.21770 2829 ft 170 kts 351°
2026-04-25 07:12 -34.09536 151.21472 2613 ft 169 kts 351°
2026-04-25 07:12 -34.07616 151.20972 2249 ft 167 kts 351°
2026-04-25 07:12 -34.06487 151.20678 2029 ft 165 kts 351°
2026-04-25 07:13 -34.05384 151.20392 1816 ft 161 kts 351°
2026-04-25 07:13 -34.04301 151.20110 1606 ft 159 kts 351°
2026-04-25 07:13 -34.03220 151.19829 1397 ft 158 kts 351°
2026-04-25 07:13 -34.02150 151.19551 1191 ft 157 kts 351°
2026-04-25 07:14 -34.01091 151.19276 988 ft 156 kts 352°
2026-04-25 07:14 -34.00032 151.19001 780 ft 155 kts 352°
2026-04-25 07:14 -33.98988 151.18730 573 ft 154 kts 352°
2026-04-25 07:14 -33.97945 151.18459 369 ft 154 kts 352°
2026-04-25 07:15 -33.96901 151.18188 169 ft 153 kts 352°
2026-04-25 07:15 -33.95881 151.17924 38 ft 140 kts 352°
2026-04-25 07:15 -33.95173 151.17749 38 ft 78 kts 348°
2026-04-25 07:15 -33.94747 151.17635 38 ft 47 kts 347°
2026-04-25 07:16 -33.94504 151.17516 38 ft 30 kts 322°
2026-04-25 07:16 -33.94419 151.17434 38 ft 0 kts 316°
2026-04-25 07:16 -33.94406 151.17418 38 ft 9 kts 316°
2026-04-25 07:17 -33.94317 151.17325 38 ft 19 kts 334°
2026-04-25 07:17 -33.94188 151.17283 38 ft 19 kts 347°
2026-04-25 07:17 -33.94156 151.17274 38 ft 4 kts 347°
2026-04-25 07:17 -33.94059 151.17250 38 ft 19 kts 346°
2026-04-25 07:18 -33.93994 151.17153 38 ft 18 kts 267°
2026-04-25 07:18 -33.94032 151.16961 38 ft 25 kts 255°
2026-04-25 07:18 -33.94068 151.16805 38 ft 18 kts 253°
2026-04-25 07:18 -33.94112 151.16612 38 ft 26 kts 255°
2026-04-25 07:19 -33.94155 151.16425 38 ft 20 kts 254°
2026-04-25 07:19 -33.94103 151.16285 38 ft 18 kts 343°
2026-04-25 07:19 -33.93984 151.16288 38 ft 19 kts